GFSMW_prec_precacc24_225.txt.gz
Total_Precipitation_Accumulation
0.00 0.00 0.00 0.00 0.00 0.00 0.00 0.02 0.02 0.04 0.06 0.06 0.12 0.11 0.14 0.14 0.09 0.14 0.23 0.18 0.22 0.22 0.24 0.17 0.13 0.17 0.17 0.10 0.11 0.12 0.08 0.02 0.01 0.00 0.00 0.00 0.00 0.00 0.00 0.00 0.00 0.00 0.00
0.00 0.00 0.00 0.00 0.00 0.00 0.00 0.01 0.03 0.07 0.07 0.08 0.11 0.14 0.24 0.20 0.17 0.20 0.27 0.29 0.24 0.25 0.19 0.15 0.13 0.09 0.10 0.13 0.16 0.16 0.15 0.12 0.08 0.04 0.02 0.00 0.00 0.00 0.00 0.00 0.00 0.00 0.00
0.00 0.00 0.00 0.00 0.00 0.00 0.00 0.01 0.02 0.06 0.12 0.21 0.25 0.29 0.36 0.22 0.13 0.11 0.13 0.28 0.39 0.34 0.23 0.16 0.14 0.11 0.12 0.08 0.08 0.12 0.13 0.11 0.08 0.06 0.07 0.04 0.02 0.00 0.00 0.00 0.00 0.00 0.00
0.00 0.00 0.00 0.00 0.00 0.00 0.01 0.03 0.05 0.12 0.33 0.36 0.30 0.26 0.26 0.18 0.17 0.23 0.23 0.31 0.37 0.37 0.33 0.27 0.26 0.21 0.19 0.16 0.17 0.16 0.14 0.19 0.15 0.11 0.06 0.07 0.09 0.08 0.04 0.01 0.00 0.00 0.00
0.00 0.00 0.00 0.00 0.02 0.05 0.08 0.12 0.23 0.26 0.35 0.41 0.35 0.39 0.35 0.27 0.25 0.25 0.30 0.34 0.29 0.29 0.31 0.27 0.25 0.27 0.31 0.29 0.29 0.31 0.33 0.31 0.31 0.29 0.16 0.18 0.20 0.19 0.15 0.10 0.04 0.03 0.01
0.00 0.00 0.00 0.00 0.05 0.08 0.18 0.26 0.29 0.29 0.34 0.37 0.41 0.44 0.46 0.56 0.51 0.44 0.45 0.51 0.53 0.58 0.55 0.47 0.43 0.42 0.45 0.42 0.42 0.44 0.44 0.46 0.50 0.63 0.67 0.61 0.54 0.46 0.39 0.37 0.26 0.17 0.11
0.00 0.00 0.00 0.00 0.02 0.06 0.18 0.31 0.39 0.36 0.37 0.43 0.48 0.50 0.52 0.55 0.60 0.64 0.62 0.64 0.64 0.64 0.65 0.79 0.89 0.93 0.98 1.02 1.13 1.25 1.13 1.10 1.22 1.07 1.04 1.04 0.91 0.73 0.65 0.61 0.54 0.40 0.27
0.01 0.00 0.00 0.01 0.00 0.01 0.12 0.31 0.36 0.34 0.47 0.54 0.68 0.76 0.86 1.08 1.13 1.11 1.08 1.03 1.01 1.04 1.02 1.12 1.22 1.26 1.38 1.51 1.62 1.63 1.56 1.53 1.48 1.40 1.21 1.04 0.98 0.85 0.70 0.58 0.50 0.54 0.53
0.02 0.02 0.03 0.04 0.06 0.07 0.07 0.21 0.50 0.71 0.99 0.99 0.96 0.96 0.93 0.98 1.01 1.07 1.33 1.56 1.65 1.55 1.44 1.42 1.31 1.21 1.12 1.17 1.36 1.44 1.35 1.26 1.11 0.89 0.77 0.69 0.56 0.52 0.47 0.43 0.45 0.41 0.51
0.00 0.00 0.01 0.02 0.01 0.01 0.03 0.06 0.18 0.53 1.02 1.34 1.23 1.04 1.07 1.15 0.98 0.94 0.97 0.92 1.03 1.25 1.21 1.13 1.16 1.16 1.17 1.18 1.15 1.12 1.10 1.13 1.04 0.88 0.76 0.62 0.46 0.39 0.32 0.26 0.22 0.18 0.22
0.00 0.00 0.00 0.03 0.06 0.06 0.08 0.07 0.07 0.07 0.11 0.24 0.43 0.78 0.88 0.76 0.66 0.56 0.66 0.82 0.78 0.72 0.87 0.89 0.88 0.95 0.91 0.90 0.99 0.91 0.85 0.79 0.74 0.72 0.70 0.68 0.57 0.54 0.42 0.27 0.19 0.16 0.13
0.00 0.00 0.00 0.00 0.00 0.01 0.04 0.08 0.11 0.14 0.13 0.11 0.15 0.17 0.19 0.28 0.35 0.35 0.38 0.57 0.77 0.85 0.91 0.80 0.72 0.68 0.74 0.81 0.80 0.75 0.69 0.67 0.71 0.66 0.68 0.70 0.72 0.68 0.60 0.48 0.35 0.28 0.21
0.00 0.00 0.00 0.00 0.00 0.00 0.00 0.00 0.00 0.01 0.01 0.02 0.03 0.06 0.07 0.07 0.09 0.12 0.14 0.18 0.28 0.46 0.59 0.69 0.73 0.76 0.78 0.77 0.78 0.79 0.74 0.67 0.64 0.62 0.65 0.69 0.73 0.80 0.78 0.70 0.60 0.57 0.54
0.00 0.00 0.00 0.00 0.00 0.00 0.00 0.00 0.00 0.00 0.00 0.00 0.00 0.00 0.00 0.01 0.01 0.01 0.03 0.06 0.13 0.22 0.36 0.59 0.74 0.70 0.68 0.75 0.77 0.77 0.73 0.66 0.65 0.63 0.62 0.64 0.66 0.68 0.73 0.78 0.77 0.76 0.78
0.00 0.00 0.00 0.00 0.00 0.00 0.00 0.00 0.00 0.00 0.00 0.00 0.00 0.01 0.01 0.01 0.01 0.02 0.01 0.01 0.03 0.07 0.13 0.24 0.36 0.46 0.50 0.64 0.70 0.67 0.68 0.66 0.67 0.69 0.67 0.64 0.68 0.79 0.84 0.84 0.84 0.84 0.89
0.00 0.00 0.00 0.00 0.00 0.00 0.00 0.00 0.00 0.00 0.00 0.00 0.00 0.02 0.02 0.01 0.01 0.00 0.00 0.01 0.00 0.01 0.01 0.03 0.09 0.21 0.34 0.56 0.64 0.57 0.53 0.53 0.55 0.53 0.54 0.61 0.66 0.72 0.83 0.87 0.90 0.86 0.80
0.00 0.00 0.00 0.00 0.00 0.00 0.00 0.00 0.00 0.00 0.00 0.00 0.00 0.00 0.00 0.00 0.00 0.00 0.00 0.00 0.01 0.01 0.02 0.04 0.07 0.08 0.13 0.30 0.45 0.47 0.42 0.48 0.51 0.49 0.47 0.51 0.61 0.67 0.68 0.76 0.82 0.91 0.91
0.00 0.00 0.00 0.00 0.00 0.00 0.00 0.00 0.00 0.00 0.00 0.00 0.00 0.00 0.00 0.00 0.00 0.00 0.00 0.01 0.02 0.02 0.04 0.07 0.08 0.07 0.12 0.27 0.32 0.36 0.33 0.33 0.35 0.35 0.39 0.39 0.46 0.55 0.61 0.61 0.59 0.62 0.63
0.00 0.00 0.00 0.00 0.00 0.00 0.00 0.00 0.00 0.00 0.00 0.00 0.00 0.00 0.00 0.00 0.00 0.01 0.02 0.03 0.05 0.05 0.06 0.07 0.07 0.06 0.07 0.19 0.27 0.33 0.28 0.35 0.41 0.37 0.36 0.38 0.39 0.48 0.51 0.50 0.51 0.53 0.52
0.00 0.00 0.00 0.00 0.00 0.00 0.00 0.00 0.00 0.00 0.00 0.00 0.00 0.00 0.01 0.01 0.02 0.03 0.04 0.05 0.06 0.05 0.04 0.03 0.02 0.07 0.11 0.18 0.19 0.29 0.27 0.26 0.27 0.28 0.34 0.40 0.46 0.46 0.36 0.36 0.36 0.36 0.38
0.00 0.00 0.00 0.00 0.00 0.00 0.00 0.00 0.00 0.00 0.00 0.00 0.01 0.01 0.02 0.02 0.02 0.02 0.01 0.02 0.03 0.02 0.02 0.02 0.04 0.08 0.13 0.15 0.13 0.15 0.17 0.25 0.34 0.35 0.35 0.38 0.43 0.39 0.32 0.28 0.28 0.25 0.27
0.00 0.00 0.00 0.00 0.00 0.00 0.00 0.00 0.00 0.01 0.01 0.02 0.03 0.02 0.02 0.02 0.01 0.01 0.01 0.01 0.02 0.05 0.07 0.07 0.11 0.15 0.18 0.22 0.19 0.17 0.17 0.19 0.26 0.35 0.37 0.47 0.45 0.33 0.25 0.24 0.22 0.18 0.19
0.00 0.00 0.00 0.00 0.00 0.00 0.01 0.01 0.02 0.02 0.03 0.03 0.02 0.02 0.01 0.01 0.01 0.00 0.01 0.02 0.06 0.10 0.14 0.16 0.20 0.24 0.27 0.28 0.31 0.37 0.28 0.22 0.17 0.27 0.41 0.46 0.39 0.30 0.28 0.23 0.16 0.12 0.10
0.00 0.00 0.01 0.00 0.00 0.01 0.01 0.03 0.04 0.03 0.03 0.02 0.01 0.00 0.00 0.03 0.02 0.05 0.10 0.13 0.16 0.18 0.20 0.26 0.31 0.31 0.32 0.33 0.35 0.40 0.46 0.38 0.35 0.47 0.52 0.42 0.31 0.24 0.27 0.23 0.18 0.12 0.08
0.03 0.02 0.02 0.02 0.02 0.02 0.04 0.05 0.05 0.05 0.03 0.02 0.01 0.01 0.03 0.06 0.09 0.13 0.16 0.15 0.19 0.22 0.24 0.26 0.25 0.27 0.29 0.24 0.24 0.25 0.23 0.22 0.26 0.32 0.37 0.35 0.24 0.23 0.20 0.19 0.16 0.11 0.07
0.03 0.03 0.02 0.05 0.05 0.06 0.05 0.04 0.04 0.03 0.04 0.01 0.01 0.04 0.04 0.05 0.09 0.10 0.16 0.21 0.19 0.20 0.17 0.19 0.19 0.24 0.22 0.27 0.35 0.35 0.33 0.31 0.28 0.26 0.26 0.27 0.26 0.26 0.22 0.21 0.19 0.10 0.06

GFSMW_prec_precacc24_231.txt.gz
Total_Precipitation_Accumulation
0.00 0.00 0.00 0.00 0.00 0.00 0.00 0.01 0.01 0.03 0.05 0.05 0.09 0.08 0.10 0.13 0.09 0.09 0.10 0.13 0.20 0.21 0.24 0.19 0.18 0.24 0.26 0.23 0.23 0.22 0.16 0.14 0.11 0.11 0.06 0.01 0.00 0.00 0.00 0.00 0.00 0.00 0.00
0.00 0.00 0.00 0.00 0.00 0.00 0.00 0.01 0.02 0.06 0.06 0.08 0.09 0.11 0.17 0.13 0.12 0.09 0.06 0.12 0.18 0.24 0.18 0.15 0.13 0.09 0.11 0.13 0.17 0.19 0.19 0.16 0.14 0.19 0.22 0.17 0.10 0.05 0.01 0.01 0.00 0.00 0.00
0.00 0.00 0.00 0.00 0.00 0.00 0.00 0.01 0.02 0.04 0.08 0.13 0.17 0.21 0.28 0.17 0.11 0.10 0.10 0.10 0.20 0.25 0.20 0.16 0.14 0.11 0.13 0.09 0.09 0.13 0.15 0.16 0.11 0.12 0.21 0.19 0.11 0.06 0.01 0.01 0.00 0.00 0.01
0.00 0.00 0.00 0.00 0.00 0.00 0.00 0.00 0.01 0.04 0.09 0.12 0.17 0.17 0.21 0.14 0.11 0.16 0.16 0.10 0.12 0.20 0.25 0.25 0.26 0.21 0.19 0.16 0.17 0.16 0.16 0.23 0.19 0.15 0.11 0.16 0.18 0.18 0.09 0.02 0.00 0.00 0.00
0.00 0.00 0.00 0.00 0.00 0.00 0.00 0.00 0.00 0.04 0.07 0.10 0.14 0.19 0.22 0.19 0.21 0.23 0.27 0.23 0.19 0.22 0.25 0.25 0.24 0.27 0.31 0.29 0.29 0.32 0.33 0.32 0.33 0.32 0.27 0.26 0.26 0.25 0.22 0.15 0.06 0.04 0.02
0.00 0.00 0.00 0.00 0.00 0.00 0.00 0.00 0.00 0.00 0.02 0.06 0.14 0.24 0.28 0.40 0.43 0.40 0.42 0.45 0.45 0.52 0.51 0.45 0.41 0.41 0.44 0.42 0.42 0.44 0.44 0.46 0.50 0.64 0.70 0.69 0.67 0.65 0.66 0.62 0.42 0.31 0.19
0.00 0.00 0.00 0.00 0.00 0.00 0.00 0.00 0.00 0.00 0.01 0.06 0.16 0.27 0.31 0.36 0.45 0.52 0.56 0.61 0.62 0.61 0.62 0.77 0.88 0.92 0.97 1.02 1.13 1.25 1.14 1.11 1.23 1.08 1.05 1.05 0.93 0.78 0.77 0.81 0.78 0.61 0.37
0.00 0.00 0.00 0.00 0.00 0.00 0.00 0.00 0.00 0.00 0.00 0.02 0.07 0.17 0.27 0.40 0.49 0.65 0.82 0.90 0.95 1.01 1.01 1.11 1.21 1.25 1.37 1.52 1.65 1.66 1.59 1.58 1.53 1.44 1.25 1.07 0.99 0.86 0.73 0.63 0.64 0.74 0.68
0.00 0.00 0.00 0.00 0.00 0.00 0.00 0.00 0.00 0.00 0.00 0.01 0.04 0.14 0.19 0.25 0.33 0.34 0.47 0.92 1.11 1.26 1.39 1.41 1.30 1.20 1.11 1.15 1.36 1.48 1.42 1.34 1.18 0.95 0.83 0.74 0.60 0.56 0.51 0.48 0.49 0.47 0.57
0.00 0.00 0.00 0.00 0.00 0.00 0.00 0.00 0.00 0.00 0.00 0.00 0.00 0.06 0.14 0.17 0.20 0.26 0.34 0.54 0.67 0.82 1.02 1.09 1.13 1.12 1.12 1.12 1.09 1.09 1.09 1.14 1.08 0.96 0.84 0.68 0.51 0.44 0.36 0.29 0.24 0.21 0.26
0.00 0.00 0.00 0.00 0.00 0.00 0.00 0.00 0.00 0.00 0.00 0.00 0.00 0.00 0.05 0.07 0.09 0.14 0.19 0.30 0.41 0.49 0.74 0.86 0.85 0.89 0.79 0.74 0.77 0.74 0.74 0.69 0.67 0.68 0.66 0.63 0.55 0.52 0.41 0.28 0.20 0.16 0.15
0.00 0.00 0.00 0.00 0.00 0.00 0.00 0.00 0.00 0.00 0.00 0.00 0.00 0.00 0.00 0.01 0.03 0.09 0.16 0.22 0.34 0.47 0.59 0.65 0.66 0.62 0.62 0.66 0.62 0.55 0.49 0.47 0.51 0.54 0.60 0.64 0.68 0.66 0.59 0.47 0.35 0.28 0.21
0.00 0.00 0.00 0.00 0.00 0.00 0.00 0.00 0.00 0.00 0.00 0.00 0.00 0.00 0.00 0.00 0.00 0.00 0.02 0.04 0.07 0.20 0.28 0.38 0.47 0.57 0.62 0.61 0.64 0.67 0.64 0.58 0.53 0.52 0.58 0.64 0.69 0.77 0.76 0.69 0.59 0.57 0.54
0.00 0.00 0.00 0.00 0.00 0.00 0.00 0.00 0.00 0.00 0.00 0.00 0.00 0.00 0.00 0.00 0.00 0.00 0.00 0.01 0.03 0.06 0.18 0.39 0.52 0.52 0.54 0.66 0.70 0.73 0.71 0.64 0.62 0.59 0.59 0.62 0.64 0.67 0.72 0.77 0.77 0.76 0.77
0.00 0.00 0.00 0.00 0.00 0.00 0.00 0.00 0.00 0.00 0.00 0.00 0.00 0.00 0.00 0.00 0.00 0.01 0.01 0.01 0.02 0.03 0.05 0.14 0.25 0.37 0.45 0.61 0.68 0.68 0.68 0.65 0.64 0.64 0.64 0.62 0.67 0.78 0.84 0.84 0.84 0.85 0.89
0.00 0.00 0.00 0.00 0.00 0.00 0.00 0.00 0.00 0.00 0.00 0.00 0.00 0.00 0.00 0.00 0.00 0.00 0.00 0.00 0.00 0.00 0.01 0.03 0.06 0.16 0.31 0.55 0.64 0.61 0.57 0.56 0.57 0.52 0.52 0.60 0.66 0.72 0.82 0.87 0.90 0.86 0.82
0.00 0.00 0.00 0.00 0.00 0.00 0.00 0.00 0.00 0.00 0.00 0.00 0.00 0.00 0.00 0.00 0.00 0.00 0.00 0.00 0.00 0.01 0.02 0.04 0.08 0.10 0.15 0.31 0.48 0.50 0.44 0.49 0.49 0.47 0.45 0.48 0.57 0.62 0.65 0.74 0.83 0.92 0.93
0.00 0.00 0.00 0.00 0.00 0.00 0.00 0.00 0.00 0.00 0.00 0.00 0.00 0.00 0.00 0.00 0.00 0.00 0.00 0.01 0.01 0.01 0.04 0.07 0.08 0.07 0.12 0.24 0.31 0.33 0.29 0.30 0.32 0.32 0.36 0.37 0.43 0.53 0.59 0.60 0.59 0.62 0.65
0.00 0.00 0.00 0.00 0.00 0.00 0.00 0.00 0.00 0.00 0.00 0.00 0.00 0.00 0.00 0.00 0.00 0.00 0.01 0.01 0.02 0.03 0.06 0.07 0.07 0.05 0.05 0.14 0.21 0.28 0.23 0.30 0.36 0.33 0.32 0.36 0.36 0.44 0.48 0.48 0.50 0.53 0.53
0.00 0.00 0.00 0.00 0.00 0.00 0.00 0.00 0.00 0.00 0.00 0.00 0.00 0.00 0.00 0.00 0.01 0.02 0.03 0.03 0.04 0.04 0.04 0.02 0.01 0.04 0.04 0.09 0.13 0.23 0.22 0.21 0.23 0.25 0.31 0.40 0.42 0.40 0.35 0.36 0.36 0.37 0.41
0.00 0.00 0.00 0.00 0.00 0.00 0.00 0.00 0.00 0.00 0.00 0.00 0.00 0.01 0.02 0.02 0.02 0.01 0.01 0.01 0.00 0.00 0.00 0.01 0.01 0.02 0.04 0.06 0.06 0.10 0.13 0.22 0.33 0.33 0.31 0.34 0.38 0.36 0.32 0.29 0.29 0.28 0.32
0.00 0.00 0.00 0.00 0.00 0.00 0.00 0.00 0.00 0.00 0.00 0.01 0.03 0.02 0.02 0.02 0.01 0.01 0.00 0.01 0.01 0.00 0.00 0.00 0.01 0.02 0.05 0.12 0.11 0.12 0.15 0.19 0.26 0.34 0.35 0.44 0.43 0.33 0.26 0.25 0.23 0.24 0.26
0.00 0.00 0.00 0.00 0.00 0.00 0.00 0.00 0.01 0.01 0.02 0.03 0.02 0.02 0.01 0.01 0.00 0.00 0.00 0.00 0.00 0.00 0.00 0.01 0.02 0.02 0.07 0.14 0.26 0.33 0.25 0.21 0.16 0.25 0.40 0.46 0.40 0.31 0.29 0.24 0.20 0.20 0.19
0.00 0.00 0.00 0.00 0.00 0.01 0.01 0.01 0.02 0.02 0.02 0.02 0.01 0.01 0.00 0.02 0.00 0.01 0.02 0.02 0.02 0.01 0.01 0.02 0.05 0.08 0.14 0.18 0.26 0.35 0.42 0.37 0.33 0.46 0.51 0.44 0.32 0.26 0.30 0.27 0.23 0.21 0.19
0.00 0.00 0.01 0.01 0.01 0.01 0.01 0.01 0.02 0.03 0.02 0.02 0.01 0.01 0.03 0.05 0.04 0.03 0.03 0.02 0.02 0.05 0.04 0.04 0.06 0.09 0.17 0.18 0.22 0.24 0.21 0.22 0.28 0.36 0.38 0.36 0.26 0.25 0.24 0.24 0.26 0.26 0.24
0.01 0.01 0.01 0.01 0.01 0.01 0.01 0.02 0.03 0.03 0.04 0.02 0.01 0.02 0.01 0.01 0.01 0.01 0.02 0.04 0.04 0.07 0.06 0.07 0.12 0.17 0.18 0.25 0.32 0.33 0.32 0.33 0.32 0.31 0.28 0.29 0.29 0.28 0.25 0.29 0.33 0.30 0.22

GFSMW_prec_precacc24_237.txt.gz
Total_Precipitation_Accumulation
0.00 0.00 0.00 0.00 0.00 0.00 0.00 0.01 0.02 0.01 0.02 0.02 0.02 0.02 0.01 0.02 0.02 0.02 0.05 0.07 0.15 0.17 0.20 0.16 0.16 0.23 0.26 0.22 0.23 0.22 0.16 0.14 0.12 0.11 0.06 0.01 0.00 0.00 0.00 0.00 0.00 0.01 0.01
0.00 0.00 0.00 0.00 0.00 0.00 0.00 0.00 0.00 0.00 0.00 0.02 0.03 0.02 0.02 0.01 0.02 0.02 0.03 0.07 0.12 0.19 0.17 0.13 0.10 0.06 0.08 0.11 0.16 0.18 0.19 0.16 0.15 0.19 0.23 0.17 0.10 0.05 0.01 0.01 0.00 0.00 0.00
0.00 0.00 0.00 0.00 0.00 0.00 0.00 0.00 0.00 0.01 0.00 0.00 0.01 0.02 0.04 0.05 0.04 0.02 0.02 0.03 0.06 0.07 0.11 0.13 0.13 0.10 0.11 0.08 0.08 0.13 0.15 0.16 0.11 0.12 0.21 0.20 0.11 0.06 0.01 0.01 0.00 0.00 0.01
0.00 0.00 0.00 0.00 0.00 0.00 0.00 0.00 0.00 0.01 0.00 0.00 0.00 0.00 0.01 0.01 0.03 0.05 0.04 0.03 0.05 0.06 0.09 0.16 0.20 0.17 0.17 0.15 0.17 0.16 0.16 0.23 0.19 0.15 0.11 0.17 0.20 0.19 0.09 0.02 0.00 0.00 0.00
0.00 0.00 0.00 0.00 0.00 0.00 0.00 0.00 0.00 0.00 0.00 0.00 0.00 0.00 0.00 0.00 0.01 0.03 0.06 0.10 0.10 0.12 0.12 0.13 0.15 0.18 0.24 0.24 0.27 0.31 0.33 0.32 0.33 0.32 0.27 0.26 0.26 0.25 0.22 0.15 0.06 0.04 0.02
0.00 0.00 0.00 0.00 0.00 0.00 0.00 0.00 0.00 0.00 0.00 0.00 0.00 0.00 0.00 0.00 0.00 0.00 0.00 0.00 0.01 0.08 0.16 0.23 0.26 0.27 0.31 0.33 0.35 0.39 0.42 0.45 0.50 0.64 0.70 0.69 0.67 0.65 0.67 0.63 0.43 0.31 0.19
0.00 0.00 0.00 0.00 0.00 0.00 0.00 0.00 0.00 0.00 0.00 0.00 0.00 0.00 0.00 0.00 0.00 0.00 0.00 0.00 0.00 0.00 0.01 0.06 0.12 0.23 0.40 0.45 0.55 0.74 0.81 0.95 1.16 1.08 1.05 1.05 0.93 0.78 0.77 0.82 0.79 0.62 0.37
0.00 0.00 0.00 0.00 0.00 0.00 0.00 0.00 0.00 0.00 0.00 0.00 0.00 0.00 0.00 0.00 0.00 0.00 0.00 0.00 0.00 0.01 0.01 0.02 0.02 0.04 0.15 0.26 0.39 0.50 0.65 0.88 1.09 1.22 1.22 1.07 0.99 0.86 0.73 0.64 0.69 0.84 0.74
0.00 0.00 0.00 0.00 0.00 0.00 0.00 0.00 0.00 0.00 0.00 0.00 0.00 0.00 0.00 0.00 0.00 0.00 0.00 0.00 0.01 0.02 0.03 0.06 0.06 0.06 0.08 0.11 0.18 0.35 0.44 0.45 0.41 0.44 0.62 0.71 0.59 0.55 0.51 0.49 0.55 0.64 0.76
0.00 0.00 0.00 0.00 0.00 0.00 0.00 0.00 0.00 0.00 0.00 0.00 0.00 0.00 0.00 0.00 0.00 0.01 0.02 0.02 0.03 0.05 0.07 0.07 0.07 0.07 0.10 0.14 0.16 0.20 0.24 0.30 0.31 0.33 0.39 0.50 0.48 0.43 0.36 0.29 0.26 0.27 0.37
0.00 0.00 0.00 0.00 0.00 0.00 0.00 0.00 0.00 0.00 0.00 0.00 0.00 0.00 0.00 0.00 0.00 0.03 0.04 0.06 0.08 0.08 0.19 0.25 0.29 0.32 0.25 0.22 0.26 0.22 0.20 0.18 0.19 0.18 0.19 0.24 0.31 0.39 0.34 0.25 0.20 0.18 0.24
0.00 0.00 0.00 0.00 0.00 0.00 0.00 0.00 0.00 0.00 0.00 0.00 0.00 0.00 0.00 0.00 0.00 0.02 0.04 0.10 0.18 0.24 0.25 0.18 0.17 0.15 0.14 0.15 0.11 0.07 0.06 0.06 0.11 0.12 0.16 0.24 0.35 0.42 0.42 0.37 0.28 0.24 0.22
0.00 0.00 0.00 0.00 0.00 0.00 0.00 0.00 0.00 0.00 0.00 0.00 0.00 0.00 0.00 0.00 0.00 0.00 0.00 0.01 0.01 0.03 0.02 0.05 0.09 0.12 0.13 0.10 0.10 0.13 0.14 0.15 0.15 0.14 0.19 0.27 0.38 0.49 0.53 0.51 0.46 0.48 0.49
0.00 0.00 0.00 0.00 0.00 0.00 0.00 0.00 0.00 0.00 0.00 0.00 0.00 0.00 0.00 0.00 0.00 0.00 0.00 0.00 0.00 0.01 0.04 0.11 0.15 0.16 0.13 0.18 0.21 0.23 0.24 0.22 0.22 0.22 0.24 0.29 0.35 0.42 0.50 0.58 0.62 0.64 0.69
0.00 0.00 0.00 0.00 0.00 0.00 0.00 0.00 0.00 0.00 0.00 0.00 0.00 0.00 0.00 0.00 0.00 0.00 0.00 0.00 0.00 0.02 0.03 0.06 0.06 0.06 0.10 0.19 0.27 0.29 0.31 0.32 0.31 0.30 0.33 0.32 0.37 0.50 0.58 0.64 0.68 0.73 0.80
0.00 0.00 0.00 0.00 0.00 0.00 0.00 0.00 0.00 0.00 0.00 0.00 0.00 0.00 0.00 0.00 0.00 0.00 0.00 0.00 0.00 0.00 0.00 0.00 0.02 0.06 0.10 0.20 0.33 0.35 0.35 0.35 0.35 0.31 0.33 0.39 0.47 0.55 0.67 0.74 0.77 0.76 0.77
0.00 0.00 0.00 0.00 0.00 0.00 0.00 0.00 0.00 0.00 0.00 0.00 0.00 0.00 0.00 0.00 0.00 0.00 0.00 0.00 0.00 0.01 0.01 0.03 0.05 0.06 0.08 0.16 0.31 0.30 0.26 0.28 0.30 0.31 0.31 0.35 0.45 0.51 0.57 0.69 0.78 0.89 0.92
0.00 0.00 0.00 0.00 0.00 0.00 0.00 0.00 0.00 0.00 0.00 0.00 0.00 0.00 0.00 0.00 0.00 0.00 0.00 0.01 0.01 0.01 0.03 0.05 0.05 0.03 0.04 0.06 0.17 0.23 0.22 0.22 0.23 0.26 0.32 0.34 0.39 0.51 0.58 0.59 0.58 0.62 0.66
0.00 0.00 0.00 0.00 0.00 0.00 0.00 0.00 0.00 0.00 0.00 0.00 0.00 0.00 0.00 0.00 0.00 0.00 0.01 0.01 0.02 0.03 0.05 0.06 0.05 0.02 0.01 0.06 0.10 0.16 0.19 0.25 0.29 0.28 0.30 0.35 0.36 0.44 0.49 0.49 0.51 0.54 0.54
0.00 0.00 0.00 0.00 0.00 0.00 0.00 0.00 0.00 0.00 0.00 0.00 0.00 0.00 0.00 0.00 0.01 0.02 0.03 0.03 0.04 0.04 0.03 0.01 0.00 0.01 0.00 0.06 0.08 0.12 0.13 0.16 0.18 0.21 0.28 0.40 0.43 0.40 0.37 0.40 0.39 0.39 0.41
0.00 0.00 0.00 0.00 0.00 0.00 0.00 0.00 0.00 0.00 0.00 0.00 0.00 0.01 0.01 0.02 0.02 0.01 0.01 0.01 0.00 0.00 0.00 0.00 0.00 0.00 0.02 0.04 0.04 0.04 0.06 0.16 0.24 0.29 0.29 0.33 0.40 0.37 0.35 0.32 0.32 0.31 0.35
0.00 0.00 0.00 0.00 0.00 0.00 0.00 0.00 0.00 0.00 0.00 0.01 0.02 0.02 0.02 0.02 0.01 0.01 0.00 0.01 0.01 0.01 0.00 0.00 0.00 0.00 0.01 0.05 0.05 0.07 0.07 0.12 0.23 0.31 0.33 0.43 0.44 0.34 0.28 0.27 0.27 0.29 0.31
0.00 0.00 0.00 0.00 0.01 0.01 0.00 0.01 0.01 0.01 0.02 0.03 0.02 0.01 0.01 0.01 0.00 0.00 0.00 0.00 0.01 0.00 0.00 0.00 0.00 0.00 0.00 0.03 0.11 0.17 0.17 0.14 0.13 0.23 0.39 0.46 0.40 0.33 0.31 0.29 0.23 0.22 0.21
0.00 0.00 0.01 0.01 0.01 0.01 0.01 0.01 0.02 0.02 0.02 0.01 0.01 0.00 0.00 0.02 0.00 0.01 0.02 0.02 0.02 0.01 0.00 0.01 0.01 0.01 0.01 0.02 0.06 0.14 0.27 0.27 0.26 0.39 0.47 0.41 0.31 0.28 0.31 0.29 0.25 0.22 0.20
0.00 0.00 0.00 0.01 0.01 0.01 0.01 0.01 0.02 0.03 0.02 0.02 0.01 0.01 0.02 0.04 0.04 0.03 0.03 0.02 0.01 0.03 0.02 0.01 0.01 0.03 0.04 0.03 0.07 0.10 0.13 0.16 0.22 0.32 0.34 0.32 0.26 0.26 0.25 0.25 0.26 0.27 0.27
0.00 0.00 0.00 0.01 0.01 0.01 0.01 0.02 0.02 0.03 0.03 0.01 0.01 0.02 0.01 0.00 0.01 0.00 0.01 0.01 0.01 0.01 0.01 0.01 0.04 0.06 0.06 0.08 0.14 0.17 0.22 0.26 0.28 0.30 0.27 0.28 0.29 0.29 0.26 0.29 0.33 0.31 0.25

GFSMW_prec_precacc24_240.txt.gz
Total_Precipitation_Accumulation
0.00 0.00 0.00 0.00 0.00 0.00 0.00 0.01 0.02 0.02 0.01 0.01 0.02 0.01 0.01 0.01 0.01 0.01 0.02 0.03 0.07 0.13 0.18 0.15 0.16 0.22 0.26 0.22 0.23 0.22 0.16 0.14 0.12 0.11 0.06 0.01 0.00 0.00 0.00 0.00 0.00 0.01 0.01
0.00 0.00 0.00 0.00 0.00 0.00 0.00 0.00 0.00 0.00 0.01 0.01 0.02 0.01 0.01 0.01 0.01 0.01 0.02 0.03 0.05 0.06 0.06 0.07 0.07 0.06 0.08 0.11 0.15 0.18 0.19 0.16 0.15 0.19 0.23 0.17 0.10 0.05 0.01 0.01 0.00 0.00 0.00
0.00 0.00 0.00 0.00 0.00 0.00 0.00 0.00 0.01 0.01 0.01 0.00 0.01 0.00 0.01 0.01 0.01 0.01 0.01 0.01 0.02 0.03 0.03 0.03 0.06 0.07 0.09 0.07 0.07 0.12 0.15 0.16 0.11 0.12 0.21 0.20 0.11 0.06 0.01 0.01 0.00 0.00 0.01
0.00 0.00 0.00 0.00 0.00 0.00 0.00 0.00 0.00 0.01 0.00 0.00 0.00 0.00 0.00 0.00 0.00 0.00 0.00 0.01 0.02 0.04 0.05 0.05 0.07 0.09 0.12 0.11 0.15 0.15 0.15 0.22 0.19 0.15 0.11 0.17 0.20 0.19 0.09 0.02 0.00 0.00 0.00
0.00 0.00 0.00 0.00 0.00 0.00 0.00 0.00 0.00 0.00 0.00 0.00 0.00 0.00 0.00 0.00 0.00 0.00 0.00 0.00 0.00 0.00 0.02 0.05 0.07 0.11 0.15 0.16 0.18 0.22 0.26 0.29 0.33 0.32 0.27 0.26 0.26 0.25 0.22 0.15 0.06 0.04 0.02
0.00 0.00 0.00 0.00 0.00 0.00 0.00 0.00 0.00 0.00 0.00 0.00 0.00 0.00 0.00 0.00 0.00 0.00 0.00 0.00 0.00 0.00 0.00 0.00 0.02 0.05 0.10 0.11 0.12 0.14 0.16 0.20 0.29 0.52 0.67 0.68 0.67 0.65 0.67 0.63 0.43 0.31 0.19
0.00 0.00 0.00 0.00 0.00 0.00 0.00 0.00 0.00 0.00 0.00 0.01 0.00 0.00 0.00 0.00 0.00 0.00 0.00 0.00 0.00 0.00 0.00 0.00 0.01 0.02 0.05 0.12 0.14 0.19 0.19 0.20 0.39 0.49 0.73 0.89 0.87 0.76 0.76 0.81 0.79 0.62 0.37
0.00 0.00 0.00 0.00 0.00 0.00 0.00 0.00 0.00 0.00 0.00 0.00 0.00 0.00 0.00 0.00 0.00 0.00 0.00 0.00 0.00 0.00 0.01 0.02 0.02 0.02 0.03 0.07 0.13 0.14 0.16 0.20 0.19 0.24 0.31 0.36 0.56 0.66 0.63 0.60 0.69 0.84 0.73
0.00 0.00 0.00 0.00 0.00 0.00 0.00 0.00 0.00 0.00 0.00 0.00 0.00 0.00 0.00 0.00 0.00 0.00 0.00 0.00 0.01 0.02 0.03 0.05 0.06 0.05 0.06 0.07 0.08 0.13 0.19 0.20 0.16 0.15 0.18 0.21 0.21 0.32 0.39 0.45 0.54 0.67 0.78
0.00 0.00 0.00 0.00 0.00 0.00 0.00 0.00 0.00 0.00 0.00 0.00 0.00 0.00 0.00 0.00 0.00 0.01 0.02 0.02 0.03 0.05 0.07 0.07 0.07 0.07 0.10 0.14 0.15 0.16 0.17 0.20 0.20 0.20 0.22 0.22 0.23 0.24 0.25 0.26 0.27 0.31 0.44
0.00 0.00 0.00 0.00 0.00 0.00 0.00 0.00 0.00 0.00 0.00 0.00 0.00 0.00 0.00 0.00 0.00 0.03 0.04 0.06 0.08 0.08 0.19 0.25 0.29 0.32 0.25 0.22 0.25 0.21 0.18 0.15 0.12 0.10 0.12 0.11 0.12 0.19 0.18 0.17 0.20 0.20 0.29
0.00 0.00 0.00 0.00 0.00 0.00 0.00 0.00 0.00 0.00 0.00 0.00 0.00 0.00 0.00 0.00 0.00 0.02 0.04 0.10 0.18 0.24 0.25 0.18 0.16 0.15 0.14 0.14 0.10 0.05 0.04 0.03 0.06 0.06 0.06 0.08 0.15 0.19 0.21 0.20 0.19 0.20 0.21
0.00 0.00 0.00 0.00 0.00 0.00 0.00 0.00 0.00 0.00 0.00 0.00 0.00 0.00 0.00 0.00 0.00 0.00 0.00 0.01 0.01 0.03 0.02 0.05 0.08 0.11 0.12 0.08 0.07 0.07 0.07 0.07 0.07 0.07 0.11 0.12 0.19 0.26 0.27 0.28 0.26 0.29 0.30
0.00 0.00 0.00 0.00 0.00 0.00 0.00 0.00 0.00 0.00 0.00 0.00 0.00 0.00 0.00 0.00 0.00 0.00 0.00 0.00 0.00 0.01 0.03 0.10 0.13 0.14 0.11 0.12 0.10 0.11 0.10 0.07 0.07 0.08 0.12 0.16 0.20 0.25 0.32 0.40 0.44 0.45 0.48
0.00 0.00 0.00 0.00 0.00 0.00 0.00 0.00 0.00 0.00 0.00 0.00 0.00 0.00 0.00 0.00 0.00 0.00 0.00 0.00 0.00 0.01 0.03 0.05 0.05 0.05 0.06 0.12 0.13 0.13 0.13 0.13 0.10 0.09 0.13 0.16 0.21 0.33 0.41 0.46 0.52 0.57 0.62
0.00 0.00 0.00 0.00 0.00 0.00 0.00 0.00 0.00 0.00 0.00 0.00 0.00 0.00 0.00 0.00 0.00 0.00 0.00 0.00 0.00 0.00 0.00 0.00 0.01 0.05 0.08 0.11 0.13 0.14 0.16 0.17 0.16 0.13 0.14 0.20 0.28 0.36 0.46 0.52 0.56 0.54 0.55
0.00 0.00 0.00 0.00 0.00 0.00 0.00 0.00 0.00 0.00 0.00 0.00 0.00 0.00 0.00 0.00 0.00 0.00 0.00 0.00 0.00 0.01 0.01 0.03 0.05 0.06 0.07 0.08 0.13 0.11 0.09 0.10 0.15 0.16 0.13 0.15 0.25 0.32 0.39 0.49 0.57 0.69 0.73
0.00 0.00 0.00 0.00 0.00 0.00 0.00 0.00 0.00 0.00 0.00 0.00 0.00 0.00 0.00 0.00 0.00 0.00 0.00 0.01 0.01 0.01 0.03 0.05 0.05 0.03 0.03 0.03 0.02 0.02 0.01 0.05 0.10 0.14 0.17 0.17 0.23 0.35 0.43 0.45 0.44 0.48 0.53
0.00 0.00 0.00 0.00 0.00 0.00 0.00 0.00 0.00 0.00 0.00 0.00 0.00 0.00 0.00 0.00 0.00 0.00 0.01 0.01 0.02 0.03 0.05 0.06 0.04 0.02 0.01 0.01 0.01 0.01 0.00 0.05 0.11 0.16 0.22 0.26 0.26 0.36 0.43 0.43 0.45 0.47 0.48
0.00 0.00 0.00 0.00 0.00 0.00 0.00 0.00 0.00 0.00 0.00 0.00 0.00 0.00 0.00 0.00 0.01 0.02 0.03 0.03 0.04 0.04 0.03 0.01 0.00 0.01 0.00 0.01 0.01 0.02 0.03 0.04 0.06 0.12 0.21 0.33 0.36 0.36 0.35 0.39 0.39 0.38 0.39
0.00 0.00 0.00 0.00 0.00 0.00 0.00 0.00 0.00 0.00 0.00 0.00 0.00 0.01 0.01 0.02 0.02 0.01 0.01 0.01 0.00 0.00 0.00 0.00 0.00 0.00 0.01 0.01 0.02 0.02 0.02 0.02 0.07 0.17 0.23 0.29 0.36 0.35 0.35 0.33 0.33 0.32 0.36
0.00 0.00 0.00 0.00 0.00 0.00 0.00 0.00 0.00 0.00 0.00 0.01 0.02 0.02 0.02 0.02 0.01 0.01 0.00 0.00 0.00 0.01 0.00 0.00 0.00 0.00 0.01 0.03 0.02 0.03 0.05 0.06 0.09 0.17 0.26 0.36 0.39 0.33 0.28 0.27 0.28 0.29 0.31
0.00 0.00 0.00 0.00 0.01 0.01 0.00 0.00 0.00 0.01 0.02 0.03 0.02 0.01 0.01 0.00 0.00 0.00 0.00 0.00 0.01 0.00 0.00 0.00 0.00 0.00 0.00 0.01 0.06 0.05 0.08 0.08 0.06 0.14 0.32 0.42 0.37 0.32 0.31 0.29 0.24 0.22 0.21
0.00 0.00 0.01 0.01 0.01 0.00 0.00 0.01 0.01 0.02 0.02 0.01 0.01 0.00 0.00 0.01 0.00 0.00 0.01 0.02 0.01 0.01 0.00 0.01 0.01 0.01 0.01 0.02 0.04 0.07 0.10 0.17 0.17 0.27 0.36 0.37 0.31 0.28 0.31 0.28 0.24 0.22 0.20
0.00 0.00 0.00 0.00 0.00 0.00 0.00 0.01 0.01 0.02 0.02 0.01 0.01 0.01 0.02 0.02 0.01 0.00 0.01 0.02 0.01 0.02 0.02 0.01 0.01 0.03 0.04 0.02 0.04 0.05 0.06 0.10 0.17 0.24 0.27 0.28 0.24 0.25 0.24 0.24 0.26 0.27 0.27
0.00 0.00 0.00 0.00 0.00 0.00 0.00 0.01 0.01 0.02 0.03 0.01 0.00 0.02 0.01 0.00 0.00 0.00 0.01 0.01 0.00 0.01 0.01 0.01 0.04 0.05 0.03 0.03 0.05 0.08 0.11 0.16 0.23 0.27 0.24 0.24 0.27 0.28 0.26 0.29 0.34 0.31 0.25